Location: Castillon
(43.1358°N, 0.8654°E)
Time: 18:27:27
(UTC+00:00)

Meteor 2-19 Rocket - Pass Details

Date: 24 January 2021
Orbit: 935 x 959 km, 82.5° (Epoch: 27 February)

Event Time Altitude Azimuth Distance (km) Brightness Sun altitude
Rises 18:58:15 0° 186° (S) 3,625 7.6 -21.7°
Reaches altitude 10° 19:00:44 10° 187° (S) 2,684 6.9 -22.2°
Maximum altitude 19:06:54 89° 271° (W) 966 4.4 -23.3°
Drops below altitude 10° 19:13:06 10° 8° (N) 2,699 6.7 -24.4°
Sets 19:15:36 0° 9° (N) 3,647 7.4 -24.9°
